Weather History for Sedalia, MO

Change the Weather History Date:

Friday, December 21, 2012

  Actual Average Record
Temperature  
Mean Temperature 29 °F 33 °F  
Max Temperature 36 °F 42 °F 66 °F (1967)
Min Temperature 21 °F 25 °F -12 °F (1983)
Degree Days  
Heating Degree Days 36 32  
Month to date heating degree days 440 609  
Since 1 July heating degree days 1317 1454  
Cooling Degree Days 0 0  
Month to date cooling degree days 0 0  
Year to date cooling degree days 2111 1490  
Moisture  
Dew Point 15 °F    
Average Humidity 62    
Maximum Humidity 74    
Minimum Humidity 49    
Precipitation  
Precipitation 0.00 in 0.09 in 1.75 in (1949)
Month to date precipitation 0.50 1.47  
Year to date precipitation 29.92 40.26  
Sea Level Pressure  
Sea Level Pressure 30.32 in    
Wind  
Wind Speed 7 mph (West)    
Max Wind Speed 20 mph    
Max Gust Speed 28 mph    
Visibility 10 miles    
Events      
T = Trace of Precipitation, MM = Missing Value Source: NWS Daily Summary

Daily Weather History Graph

Daily Weather History Graph

Search for Another Location

Airport:

Trip Planner

Search our weather history database for the weather conditions in past years. The results will help you decide how hot, cold, wet, or windy it might be!

Date:

Astronomy

Dec. 21, 2012 Rise Set
Actual Time 7:27 AM CST 4:54 PM CST
Civil Twilight 6:57 AM CST 5:24 PM CST
Nautical Twilight 6:24 AM CST 5:58 PM CST
Astronomical Twilight 5:51 AM CST 6:30 PM CST
Moon 12:39 PM CST 1:17 AM CST
Length of Visible Light 10h 27m
Length of Day
9h 27m
Waxing Gibbous, 65% of the Moon is Illuminated
Dec 21
Waxing Gibbous
Dec 28
Full
Jan 4
Last Quarter
Jan 11
New
Jan 18
First Quarter

Hourly Weather History & Observations

Time (CST) Temp. Windchill Dew Point Humidity Pressure Visibility Wind Dir Wind Speed Gust Speed Precip Events Conditions
12:53 AM 24.1 °F 10.6 °F 14.0 °F 65% 30.22 in 10.0 mi WNW 17.3 mph 25.3 mph N/A   Clear
1:53 AM 23.0 °F 10.6 °F 12.9 °F 65% 30.23 in 10.0 mi WNW 13.8 mph - N/A   Clear
2:53 AM 23.0 °F 10.6 °F 12.9 °F 65% 30.25 in 10.0 mi WNW 13.8 mph - N/A   Clear
3:53 AM 23.0 °F 12.4 °F 12.0 °F 63% 30.27 in 10.0 mi West 10.4 mph - N/A   Clear
4:53 AM 23.0 °F 12.4 °F 12.0 °F 63% 30.28 in 10.0 mi West 10.4 mph - N/A   Clear
5:53 AM 21.0 °F 9.9 °F 12.0 °F 68% 30.30 in 10.0 mi West 10.4 mph - N/A   Clear
6:53 AM 21.0 °F 9.9 °F 12.0 °F 68% 30.31 in 10.0 mi West 10.4 mph - N/A   Clear
7:53 AM 21.9 °F 11.0 °F 12.9 °F 68% 30.34 in 10.0 mi West 10.4 mph - N/A   Clear
8:53 AM 24.1 °F 12.5 °F 14.0 °F 65% 30.36 in 10.0 mi WNW 12.7 mph - N/A   Clear
9:53 AM 27.0 °F 17.3 °F 14.0 °F 58% 30.38 in 10.0 mi WNW 10.4 mph - N/A   Clear
10:53 AM 30.0 °F 22.4 °F 14.0 °F 51% 30.39 in 10.0 mi NW 8.1 mph - N/A   Clear
11:53 AM 30.9 °F 24.3 °F 16.0 °F 54% 30.38 in 10.0 mi NW 6.9 mph - N/A   Clear
12:53 PM 33.1 °F - 18.0 °F 54% 30.36 in 10.0 mi Calm Calm - N/A   Clear
1:53 PM 34.0 °F - 17.1 °F 50% 30.34 in 10.0 mi Calm Calm - N/A   Clear
2:53 PM 35.1 °F 29.3 °F 19.0 °F 52% 30.34 in 10.0 mi WNW 6.9 mph - N/A   Clear
3:53 PM 35.1 °F 32.2 °F 19.9 °F 54% 30.34 in 10.0 mi West 3.5 mph - N/A   Clear
4:53 PM 33.1 °F - 19.0 °F 56% 30.34 in 10.0 mi Calm Calm - N/A   Clear
5:53 PM 30.9 °F - 18.0 °F 59% 30.35 in 10.0 mi Calm Calm - N/A   Clear
6:53 PM 28.9 °F - 18.0 °F 64% 30.35 in 10.0 mi Calm Calm - N/A   Clear
7:53 PM 30.0 °F - 15.1 °F 54% 30.35 in 10.0 mi Calm Calm - N/A   Clear
8:53 PM 25.0 °F 19.3 °F 17.1 °F 72% 30.35 in 10.0 mi SSE 4.6 mph - N/A   Clear
9:53 PM 25.0 °F 19.3 °F 17.1 °F 72% 30.33 in 10.0 mi SSE 4.6 mph - N/A   Clear
10:53 PM 27.0 °F 21.6 °F 16.0 °F 63% 30.32 in 10.0 mi SSE 4.6 mph - N/A   Clear
11:53 PM 24.1 °F 18.2 °F 18.0 °F 77% 30.30 in 10.0 mi ESE 4.6 mph - N/A   Clear